Regional Weather Roundup
Issued by NWS

Home | Current Version | Previous Version | Text Only | Print | Product List | Glossary Off
Versions: 1 2 3 4 5 6 7 8 9 10 11 12 13 14 15 16 17 18 19 20 21 22 23 24 25 26 27 28 29 30 31 32 33 34 35 36 37 38 39 40 41 42 43 44 45 46 47 48 49 50

000
ASUS43 KFSD 292102
RWRSD

WEATHER ROUNDUP FOR SOUTH DAKOTA
NATIONAL WEATHER SERVICE SIOUX FALLS SD
400 PM CDT MON MAY 29 2017

NOTE: "FAIR" INDICATES FEW OR NO CLOUDS BELOW 12,000 FEET WITH NO
SIGNIFICANT WEATHER AND/OR OBSTRUCTIONS TO VISIBILITY.


SDZ001>005-009-010-012>017-292200-
NORTHWEST AND NORTH CENTRAL SOUTH DAKOTA

CITY           SKY/WX    TMP DP  RH WIND       PRES   REMARKS
BUFFALO          N/A     66  33  29 NW26G33   30.05F
FAITH            N/A     67  33  28 NW22G32   30.08S
MOBRIDGE       CLOUDY    69  35  28 NW20G26   30.01S
$$

SDZ012>016-024>037-041>051-057-063-072>074-292200-
SOUTHWEST AND SOUTH CENTRAL SOUTH DAKOTA

CITY           SKY/WX    TMP DP  RH WIND       PRES   REMARKS
RAPID CTY ARPT SUNNY     69  32  25 N21G31    30.12F
PIERRE         PTSUNNY   67  35  30 NW17G26   30.03F
CUSTER         MOSUNNY   61  21  21 W7G23     30.18F
ELLSWORTH AFB  SUNNY     68  31  24 NW18G30   30.12F
PHILIP         MOSUNNY   72  32  23 NW22G35   30.07F
PINE RIDGE     SUNNY     68  39  34 VRB3      30.13F
SPEARFISH      FAIR      64  32  29 NW14G24   30.16F
WINNER         FAIR      70  40  33 NW17G25   30.06F
$$

SDZ004>011-016>023-039-040-292200-
NORTHEAST SOUTH DAKOTA

CITY           SKY/WX    TMP DP  RH WIND       PRES   REMARKS
ABERDEEN       CLOUDY    64  36  35 NW25G33   29.99S
WATERTOWN      LGT RAIN  58  45  62 NW16      29.96S
BROOKINGS      CLOUDY    58  46  64 NW21      29.98R
SISSETON         N/A     63  47  55 NW25G36   29.92F
$$

SDZ017-020-022-023-036>040-048>070-292200-
SOUTHEAST SOUTH DAKOTA

CITY           SKY/WX    TMP DP  RH WIND       PRES   REMARKS
SIOUX FALLS    PTSUNNY   64  46  52 NW22G32   29.98S
HURON          CLOUDY    64  44  48 NW20      30.01F
CHAMBERLAIN    PTSUNNY   69  39  33 W10G24    30.04F
MITCHELL       CLOUDY    65  44  46 NW13      30.03F
YANKTON        PTSUNNY   66  44  45 NW16G28   30.02R
$$

ABBREVIATIONS USED IN REMARKS
   TC - TEMPERATURE IN CELSIUS
  WCI - WIND CHILL INDEX
   HX - HEAT INDEX
  VSB - VISIBILITY




USA.gov is the U.S. government's official web portal to all federal, state and local government web resources and services.